Wind_Speed
29 30 30 29 28 28 28 28 28 27 27 26 26 26 26 26 27 28 28 28 29 29 29 28 28 27 28 27 27 27 27 26 26 26 25 25 24 24 24 23 23 24
31 31 29 28 27 27 27 26 27 28 28 27 28 28 29 30 30 31 30 30 29 29 29 29 29 29 29 29 28 28 28 27 26 26 26 25 25 24 24 24 25 25
31 30 28 27 27 27 26 26 27 29 30 30 31 32 32 33 33 33 32 31 31 30 30 30 30 30 30 30 29 29 28 27 27 27 25 25 25 24 24 24 25 26
30 28 27 27 28 28 29 29 29 31 32 32 33 34 34 34 34 34 33 33 33 32 32 32 31 31 31 30 30 30 28 27 27 27 25 24 24 23 23 23 24 24
28 29 28 29 30 31 32 32 32 33 35 34 35 35 36 35 35 35 34 34 34 34 33 33 33 32 31 30 29 29 28 27 27 27 26 24 23 22 22 23 23 23
28 29 30 31 32 34 35 35 34 35 36 36 36 36 36 36 36 36 35 34 34 34 34 33 33 32 31 31 29 29 28 26 26 26 26 24 23 23 22 23 23 23
28 30 32 33 35 36 37 37 37 37 38 38 38 37 37 37 37 37 36 36 35 34 34 33 32 32 31 31 30 29 28 27 26 26 25 24 24 23 23 24 24 23
31 33 36 37 38 38 38 38 39 38 39 39 39 39 38 38 38 38 37 36 35 34 33 33 32 31 30 30 29 29 29 28 27 26 26 25 24 24 24 25 24 24
35 36 38 38 38 38 39 39 39 39 39 39 39 39 38 38 38 37 36 35 34 33 32 32 31 30 30 29 28 28 28 28 27 27 27 26 26 26 25 25 25 25
38 38 39 39 39 39 39 40 40 40 40 39 39 39 38 37 37 36 35 34 33 32 30 30 30 30 29 29 28 28 28 27 27 27 27 27 27 27 26 26 26 26
38 39 39 39 40 40 40 40 39 39 39 38 37 37 36 35 35 34 33 32 32 31 30 29 29 29 29 29 29 28 28 28 28 28 28 28 28 27 27 27 27 27
39 39 39 40 40 40 39 38 37 37 36 36 35 34 34 34 33 33 32 32 31 30 29 29 29 29 29 28 28 29 29 29 29 29 29 29 28 28 28 28 28 27
40 40 40 40 39 38 37 36 35 35 35 34 34 34 33 33 32 32 31 31 30 29 29 29 28 28 28 28 28 28 29 29 29 30 30 29 29 29 29 28 28 28
41 40 40 39 38 37 36 35 35 35 35 34 34 33 33 32 31 30 30 30 29 28 29 29 28 28 27 27 27 27 28 29 29 29 29 29 29 29 29 29 29 28
40 40 39 38 37 37 37 37 36 36 35 34 34 33 32 31 31 30 29 29 28 27 28 28 27 27 26 26 27 27 27 28 28 28 28 28 28 28 28 28 28 28
39 39 39 39 38 38 38 38 37 36 35 34 33 32 31 30 30 29 28 28 27 26 26 26 26 25 25 26 26 26 27 28 28 27 27 26 26 26 26 26 26 27
39 39 40 40 40 39 39 38 37 36 34 33 32 31 30 29 28 28 27 27 26 26 25 25 25 25 25 25 25 25 26 26 27 26 26 25 25 25 25 24 24 25
39 39 40 40 40 39 38 37 36 35 33 32 31 30 29 28 27 27 27 26 26 25 25 25 25 24 24 24 24 25 25 25 25 25 25 24 24 24 24 24 23 23
40 39 39 39 39 38 37 35 34 33 32 31 30 29 28 28 27 27 26 26 26 25 25 25 24 24 24 23 23 24 24 24 24 24 23 23 23 23 23 24 23 22
40 39 38 38 37 36 34 34 33 32 31 30 29 28 28 27 27 26 26 26 25 25 24 24 23 23 23 22 22 22 23 23 23 23 23 23 23 23 23 24 23 23
39 38 37 36 35 34 33 32 31 31 30 29 28 27 27 26 25 25 25 24 24 23 23 22 22 22 21 21 21 21 21 22 22 22 22 22 23 23 24 24 24 23
38 37 36 34 33 32 32 31 30 30 29 28 27 26 25 25 24 23 23 22 22 22 21 21 21 20 20 20 21 21 21 21 21 21 21 22 22 23 23 24 24 23
36 34 33 32 31 30 30 29 28 28 27 26 25 25 24 23 22 22 21 21 20 20 20 20 20 20 20 20 20 20 21 21 21 21 21 22 22 22 22 23 24 24
33 32 31 30 29 28 27 27 26 25 25 24 23 23 21 21 20 20 20 20 19 19 19 19 19 19 19 20 20 20 21 21 21 21 21 21 22 22 22 22 23 24
31 31 30 29 28 27 26 25 24 24 23 22 22 21 20 19 19 19 19 19 19 18 18 18 18 18 19 19 19 20 20 21 21 21 21 21 21 21 22 22 23 24
30 29 28 27 26 26 25 24 23 23 22 21 21 20 19 18 18 18 18 18 18 18 17 17 17 17 18 18 18 19 20 20 21 21 21 21 21 22 22 23 23 23
Wind_Direction
317 317 318 317 316 314 314 314 313 312 311 310 308 307 306 306 306 307 308 308 307 306 305 304 303 303 302 303 303 302 301 300 298 296 293 290 286 283 280 277 274 271
317 317 317 317 316 315 314 314 313 311 310 309 308 308 308 308 307 307 306 306 304 304 303 303 303 303 303 303 303 302 302 301 298 295 292 290 287 283 280 277 275 272
317 316 317 316 314 313 312 312 312 310 309 309 309 308 308 307 306 305 305 304 303 303 302 302 302 303 303 303 302 302 301 300 297 294 292 289 285 282 279 275 273 272
316 315 316 315 314 313 312 312 312 310 308 308 307 306 305 304 303 303 303 303 303 302 302 301 301 302 302 301 301 300 300 299 296 294 292 288 284 281 278 275 272 270
316 315 316 315 314 312 311 310 310 308 305 305 304 303 302 301 301 300 300 300 301 301 301 301 301 301 301 300 299 298 297 296 294 292 290 286 283 280 276 274 273 271
314 312 312 313 312 310 308 307 307 305 304 303 303 302 301 301 300 300 300 300 300 300 300 299 299 300 299 298 297 295 294 293 290 288 286 283 280 277 275 274 274 274
309 309 310 311 310 309 307 307 306 305 304 304 304 304 304 303 303 302 301 301 300 300 299 298 297 296 295 295 294 293 292 290 288 285 281 278 276 274 274 275 276 276
308 309 310 310 310 309 308 308 307 307 307 306 306 306 306 305 303 303 302 301 300 299 298 296 295 293 291 291 290 290 289 288 285 282 278 275 273 272 273 275 276 276
309 309 309 309 310 310 309 309 308 308 308 307 306 306 305 304 303 302 302 301 300 299 297 295 293 291 290 288 287 286 285 284 281 278 275 273 271 271 273 274 273 272
309 309 309 310 310 310 310 310 309 309 308 307 306 305 304 303 302 302 302 301 300 298 296 294 291 290 288 287 285 283 281 279 276 273 271 269 269 270 270 270 270 270
309 310 310 310 310 310 310 310 309 308 306 306 305 304 304 303 302 302 301 300 299 298 294 291 289 288 286 284 282 280 277 274 272 269 267 266 266 267 267 267 267 268
310 311 311 311 311 310 310 309 308 307 307 307 306 306 305 304 304 303 301 299 299 297 293 290 289 286 284 282 279 276 273 271 268 267 265 265 265 264 264 264 264 265
314 314 313 313 312 311 310 310 310 310 310 310 309 308 307 306 305 303 301 300 299 296 292 291 290 287 283 280 277 274 271 268 266 265 265 264 264 263 263 262 261 261
316 315 315 314 313 313 313 313 313 313 312 312 311 310 309 307 306 304 302 301 299 296 294 292 290 287 285 282 278 274 271 268 266 264 263 262 262 262 262 261 259 259
316 315 315 315 316 316 316 316 316 315 314 313 312 312 311 309 308 307 305 303 301 298 295 293 290 287 285 282 278 275 272 269 267 264 262 261 260 259 260 259 259 259
317 317 317 318 318 318 318 317 316 315 314 313 313 312 312 310 309 308 307 305 303 300 297 294 291 288 284 280 277 274 271 269 267 265 263 261 260 259 258 258 259 260
319 319 319 319 319 318 317 316 315 314 313 313 313 312 312 310 309 309 307 306 304 302 299 295 293 289 285 281 276 272 269 267 266 265 264 264 262 261 260 259 259 260
320 320 319 318 317 316 315 314 314 314 313 313 313 312 312 311 309 308 306 305 304 301 298 295 293 289 284 280 276 271 267 265 265 264 263 263 262 263 263 262 262 261
319 318 317 316 315 315 314 314 314 314 315 314 314 313 312 310 309 307 304 302 301 299 296 294 291 287 284 279 274 270 267 265 264 264 263 262 262 263 264 264 264 264
317 316 316 315 315 315 315 316 316 316 316 315 314 312 310 308 307 304 302 300 298 296 294 292 289 286 283 279 274 270 268 266 266 265 264 264 263 263 264 265 265 265
317 316 316 316 316 317 317 316 316 315 314 313 312 310 308 307 305 303 301 299 296 294 292 290 288 286 282 279 275 272 270 268 268 267 266 265 264 263 264 265 265 266
318 318 318 318 317 317 316 315 314 313 312 311 309 308 307 306 305 304 303 301 298 296 294 292 289 286 283 280 277 274 272 271 270 270 269 268 266 265 265 265 266 266
320 320 320 319 319 317 315 314 314 312 311 310 308 308 307 307 308 307 306 305 303 300 298 295 293 289 285 282 278 275 273 272 272 271 271 270 268 266 266 266 266 266
322 322 321 321 319 318 316 316 316 314 313 312 311 310 310 310 311 312 311 310 308 305 303 299 296 293 289 285 281 278 275 274 273 272 271 270 269 267 266 266 266 266
324 324 323 322 320 318 317 317 317 316 316 316 315 314 314 314 315 315 315 314 313 311 309 305 301 297 293 289 285 281 279 278 276 275 275 273 272 271 269 267 267 266
326 326 325 324 322 320 318 317 317 317 318 318 318 317 316 317 318 318 317 316 316 315 314 311 308 303 298 294 290 286 284 282 281 280 279 278 277 275 274 272 270 269
Height
5850 5849 5847 5845 5844 5843 5842 5841 5839 5838 5837 5837 5836 5835 5834 5833 5832 5831 5831 5830 5828 5827 5826 5825 5824 5823 5822 5821 5820 5820 5819 5819 5818 5818 5818 5818 5818 5818 5818 5819 5819 5819
5847 5845 5844 5842 5841 5840 5839 5838 5836 5835 5834 5833 5832 5831 5830 5829 5828 5827 5826 5826 5825 5823 5822 5821 5820 5819 5818 5817 5817 5816 5816 5815 5814 5814 5814 5814 5813 5813 5814 5815 5815 5815
5844 5842 5841 5839 5838 5837 5836 5835 5834 5832 5831 5830 5829 5827 5826 5825 5824 5823 5822 5821 5820 5819 5818 5817 5816 5815 5814 5814 5813 5812 5812 5811 5810 5810 5810 5810 5809 5809 5809 5810 5810 5810
5841 5839 5838 5836 5835 5833 5832 5832 5831 5829 5827 5827 5825 5824 5823 5822 5820 5819 5818 5817 5816 5815 5814 5813 5812 5811 5810 5810 5809 5808 5808 5807 5806 5805 5806 5805 5805 5805 5805 5805 5805 5806
5837 5835 5834 5833 5831 5830 5828 5828 5827 5825 5823 5823 5822 5820 5819 5818 5816 5815 5814 5813 5812 5810 5809 5808 5807 5807 5806 5805 5805 5804 5804 5803 5802 5801 5801 5801 5801 5801 5801 5801 5801 5802
5835 5833 5832 5830 5829 5826 5824 5824 5823 5821 5819 5818 5817 5816 5815 5813 5812 5811 5810 5809 5808 5806 5805 5804 5803 5802 5802 5801 5800 5800 5799 5799 5798 5798 5797 5797 5797 5797 5797 5797 5797 5798
5833 5831 5829 5827 5825 5823 5821 5819 5818 5817 5815 5813 5812 5811 5810 5808 5807 5806 5805 5804 5803 5802 5801 5800 5799 5798 5798 5797 5796 5795 5795 5795 5794 5794 5794 5794 5793 5794 5793 5793 5794 5794
5830 5828 5825 5823 5821 5819 5817 5815 5813 5812 5810 5809 5807 5806 5805 5803 5802 5801 5800 5799 5798 5797 5796 5795 5795 5794 5793 5793 5792 5791 5790 5790 5790 5790 5789 5790 5790 5789 5790 5790 5790 5790
5826 5824 5821 5819 5817 5815 5813 5811 5809 5807 5806 5804 5802 5801 5800 5798 5796 5796 5794 5793 5792 5792 5791 5789 5789 5788 5788 5788 5787 5787 5786 5786 5786 5785 5785 5785 5785 5786 5786 5786 5786 5786
5821 5819 5817 5815 5813 5810 5808 5806 5804 5803 5801 5799 5797 5796 5795 5793 5791 5790 5789 5788 5787 5787 5786 5784 5784 5783 5783 5783 5782 5782 5782 5781 5781 5781 5781 5781 5782 5782 5783 5782 5782 5782
5818 5815 5812 5810 5808 5806 5804 5802 5800 5798 5796 5795 5793 5791 5790 5788 5786 5785 5784 5783 5782 5782 5781 5780 5779 5779 5778 5778 5777 5777 5777 5777 5777 5777 5777 5777 5778 5778 5778 5778 5778 5779
5813 5811 5808 5806 5803 5801 5799 5798 5796 5793 5792 5790 5788 5786 5785 5783 5782 5781 5779 5778 5778 5777 5776 5775 5775 5774 5774 5773 5773 5772 5772 5772 5772 5772 5773 5773 5773 5774 5774 5774 5775 5775
5807 5805 5802 5800 5798 5796 5794 5793 5791 5789 5787 5785 5783 5781 5780 5778 5777 5776 5774 5773 5773 5772 5770 5770 5770 5770 5769 5769 5768 5768 5768 5768 5768 5768 5768 5768 5769 5769 5769 5770 5770 5771
5801 5799 5797 5795 5793 5791 5789 5787 5785 5783 5782 5780 5778 5776 5775 5773 5772 5771 5769 5769 5769 5767 5766 5766 5765 5765 5764 5764 5763 5763 5763 5763 5763 5763 5764 5764 5764 5764 5764 5765 5766 5766
5796 5794 5792 5790 5788 5786 5783 5782 5780 5778 5776 5774 5773 5771 5770 5768 5767 5766 5765 5764 5763 5763 5761 5761 5761 5760 5760 5759 5759 5759 5758 5758 5758 5759 5759 5759 5759 5759 5760 5760 5761 5761
5791 5788 5786 5785 5783 5780 5778 5776 5775 5773 5771 5770 5768 5766 5765 5763 5762 5761 5760 5759 5758 5758 5757 5756 5756 5756 5755 5755 5754 5754 5754 5753 5754 5754 5754 5754 5755 5755 5755 5756 5756 5757
5787 5784 5781 5779 5778 5775 5774 5772 5770 5769 5767 5765 5764 5762 5761 5759 5758 5757 5756 5755 5754 5754 5753 5752 5751 5751 5751 5750 5750 5750 5750 5749 5749 5750 5750 5750 5750 5750 5751 5752 5752 5753
5783 5780 5777 5775 5774 5772 5770 5768 5766 5765 5763 5761 5760 5758 5757 5755 5754 5753 5752 5751 5750 5750 5749 5748 5747 5747 5746 5746 5746 5746 5746 5746 5746 5746 5746 5746 5746 5746 5747 5747 5748 5748
5780 5778 5775 5772 5770 5768 5766 5764 5762 5761 5759 5757 5756 5754 5753 5752 5750 5749 5748 5747 5747 5746 5745 5744 5744 5743 5743 5743 5742 5742 5742 5742 5742 5742 5742 5742 5743 5743 5743 5743 5744 5744
5777 5775 5772 5769 5767 5765 5763 5761 5759 5757 5755 5754 5752 5751 5749 5748 5747 5746 5745 5744 5743 5742 5741 5740 5740 5739 5739 5739 5739 5739 5739 5739 5739 5739 5739 5739 5739 5739 5739 5740 5740 5741
5773 5771 5769 5766 5764 5761 5759 5757 5756 5754 5752 5750 5749 5747 5746 5745 5743 5742 5741 5740 5739 5739 5738 5737 5736 5736 5736 5735 5735 5735 5735 5735 5735 5735 5735 5736 5736 5736 5736 5736 5736 5737
5769 5767 5765 5763 5760 5758 5756 5754 5753 5751 5749 5747 5746 5744 5743 5742 5740 5739 5738 5737 5736 5735 5735 5734 5733 5733 5732 5732 5732 5732 5732 5732 5732 5732 5732 5732 5732 5732 5732 5732 5732 5733
5766 5763 5761 5759 5757 5755 5753 5751 5750 5748 5746 5745 5743 5742 5740 5739 5738 5737 5736 5734 5733 5733 5732 5731 5730 5730 5729 5729 5729 5728 5728 5728 5728 5728 5728 5728 5728 5728 5729 5728 5728 5728
5763 5760 5758 5756 5754 5752 5750 5749 5747 5745 5744 5742 5741 5739 5738 5737 5735 5734 5733 5732 5731 5730 5729 5728 5728 5727 5726 5726 5726 5725 5725 5725 5725 5725 5725 5725 5725 5725 5725 5725 5724 5724
5760 5758 5755 5753 5751 5749 5748 5746 5744 5743 5741 5740 5738 5737 5736 5735 5733 5732 5731 5730 5729 5728 5727 5726 5725 5724 5724 5723 5723 5722 5722 5722 5722 5722 5722 5721 5721 5721 5721 5721 5721 5721
5758 5755 5753 5751 5749 5747 5745 5743 5742 5740 5739 5737 5736 5735 5734 5733 5732 5730 5729 5728 5727 5726 5725 5724 5723 5722 5721 5721 5720 5720 5719 5719 5719 5718 5718 5718 5718 5717 5717 5717 5717 5717